Grand Junction, CO

5:00 AM MDT on April 30, 2017 (GMT -0600)
Walker

Weather History for KGJT - March, 2015

Change the Weather History Date:

Saturday, March 14, 2015

  Actual Average Record
Temperature  
Mean Temperature 51 °F 44 °F  
Max Temperature 66 °F 56 °F 73 °F (2007)
Min Temperature 36 °F 31 °F 10 °F (1964)
Degree Days  
Heating Degree Days 14 21  
Month to date heating degree days 316 324  
Since 1 July heating degree days 4301 4703  
Cooling Degree Days 0 0  
Month to date cooling degree days 0 0  
Year to date cooling degree days 0 0  
Growing Degree Days 1 (Base 50)    
Moisture  
Dew Point 27 °F    
Average Humidity 47    
Maximum Humidity 70    
Minimum Humidity 24    
Precipitation  
Precipitation 0.00 in 0.03 in 0.96 in (1983)
Month to date precipitation 0.23 0.36  
Year to date precipitation 1.09 1.48  
Snow  
Snow 0.00 in 0.10 in 2.50 in (1956)
Month to date snowfall 1.9 1.2  
Since 1 July snowfall 10.5 16.7  
Snow Depth 0.00 in    
Sea Level Pressure  
Sea Level Pressure 30.26 in    
Wind  
Wind Speed 6 mph (East)    
Max Wind Speed 14 mph    
Max Gust Speed 16 mph    
Visibility 10 miles    
Events      
T = Trace of Precipitation, MM = Missing Value Source: NWS Daily Summary

Daily Weather History Graph

Daily Weather History Graph

Search for Another Location

Airport or City:

Trip Planner

Search our weather history database for the weather conditions in past years. The results will help you decide how hot, cold, wet, or windy it might be!

Date:

Astronomy

Mar. 14, 2015 Rise Set
Actual Time 7:27 AM MDT 7:19 PM MDT
Civil Twilight 7:00 AM MDT 7:46 PM MDT
Nautical Twilight 6:29 AM MDT 8:17 PM MDT
Astronomical Twilight 5:58 AM MDT 8:49 PM MDT
Moon 2:56 AM MDT (3/14) 1:13 PM MDT (3/14)
Length of Visible Light 12h 45m
Length of Day
11h 52m
Last Quarter, 39% of the Moon is Illuminated
Mar 14
Last Quarter
Mar 20
New
Mar 27
First Quarter
Apr 4
Full
Apr 11
Last Quarter

Hourly Weather History & Observations

Time (MDT) Temp. Windchill Dew Point Humidity Pressure Visibility Wind Dir Wind Speed Gust Speed Precip Events Conditions
12:53 AM 41.0 °F 35.8 °F 28.9 °F 62% 30.24 in 10.0 mi East 8.1 mph - N/A   Clear
1:53 AM 42.1 °F 36.6 °F 30.0 °F 62% 30.25 in 10.0 mi ESE 9.2 mph - N/A   Clear
2:53 AM 41.0 °F 33.5 °F 28.9 °F 62% 30.27 in 10.0 mi ESE 13.8 mph - N/A   Clear
3:53 AM 39.0 °F 32.8 °F 28.0 °F 65% 30.27 in 10.0 mi ENE 9.2 mph - N/A   Clear
4:53 AM 42.1 °F 35.2 °F 28.0 °F 58% 30.27 in 10.0 mi East 12.7 mph - N/A   Clear
5:53 AM 39.0 °F 32.8 °F 28.0 °F 65% 30.31 in 10.0 mi SE 9.2 mph - N/A   Clear
6:53 AM 37.0 °F 30.4 °F 28.0 °F 70% 30.32 in 10.0 mi SE 9.2 mph - N/A   Clear
7:53 AM 37.9 °F 32.7 °F 28.0 °F 68% 30.36 in 10.0 mi ESE 6.9 mph - N/A   Clear
8:53 AM 44.6 °F 40.7 °F 28.4 °F 53% 30.43 in 10.0 mi SSE 6.9 mph - N/A   Clear
9:53 AM 52.0 °F - 28.0 °F 40% 30.38 in 10.0 mi SE 8.1 mph - N/A   Clear
10:53 AM 54.0 °F - 28.0 °F 37% 30.34 in 10.0 mi SSE 6.9 mph - N/A   Clear
11:53 AM 57.0 °F - 27.0 °F 32% 30.32 in 10.0 mi Calm Calm - N/A   Clear
12:53 PM 60.1 °F - 27.0 °F 28% 30.27 in 10.0 mi Calm Calm - N/A   Clear
1:53 PM 63.0 °F - 28.0 °F 27% 30.24 in 10.0 mi Variable 5.8 mph - N/A   Clear
2:53 PM 63.0 °F - 27.0 °F 26% 30.21 in 10.0 mi Calm Calm - N/A   Clear
3:53 PM 64.9 °F - 27.0 °F 24% 30.20 in 10.0 mi Variable 4.6 mph - N/A   Clear
4:53 PM 64.9 °F - 28.0 °F 25% 30.17 in 10.0 mi WNW 5.8 mph - N/A   Clear
5:53 PM 64.0 °F - 26.1 °F 24% 30.18 in 10.0 mi NNW 8.1 mph - N/A   Clear
6:53 PM 59.0 °F - 26.1 °F 28% 30.20 in 10.0 mi NNW 4.6 mph - N/A   Clear
7:53 PM 55.9 °F - 25.0 °F 30% 30.21 in 10.0 mi North 6.9 mph - N/A   Clear
8:53 PM 55.0 °F - 25.0 °F 31% 30.21 in 10.0 mi North 6.9 mph - N/A   Clear
9:53 PM 46.9 °F - 27.0 °F 46% 30.22 in 10.0 mi Calm Calm - N/A   Clear
10:53 PM 48.0 °F - 26.1 °F 42% 30.23 in 10.0 mi ENE 4.6 mph - N/A   Clear
11:53 PM 48.0 °F - 27.0 °F 44% 30.22 in 10.0 mi East 5.8 mph - N/A   Clear